Stations météo

Publicité
Perigueux, France (7428): Température de l'air & dewpoint: 11.07.2018 06:00:00 - 17.07.2018 06:00:00 (CEST)Perigueux, France (7428): Vitesse du vent & gusts: 11.07.2018 06:00:00 - 17.07.2018 06:00:00 (CEST)Perigueux, France (7428): Direction du vent: 11.07.2018 06:00:00 - 17.07.2018 06:00:00 (CEST)Perigueux, France (7428): reduced air pressure: 11.07.2018 06:00:00 - 17.07.2018 06:00:00 (CEST)Perigueux, France (7428): visibility: 11.07.2018 06:00:00 - 17.07.2018 06:00:00 (CEST)
Date & Time tt [°C] td [°C] ff [km/h] ff [knt] fx [km/h] fx [knt] dd ppp [hPa] vv [km]
17.07.2018 06:00:00 16,2 15,9 2 1 4 2 WNW 1020,3 14
17.07.2018 05:00:00 15,4 14,8 0 0 2 1 N 1020,2 7
17.07.2018 04:00:00 16,1 15,5 2 1 8 4 SSW 1020,3 10
17.07.2018 03:00:00 16,6 15,3 0 0 8 4 N 1020,4 8
17.07.2018 02:00:00 18,0 15,8 4 2 21 11 WSW 1020,2 30
17.07.2018 01:00:00 18,9 16,3 11 6 22 12 W 1020,0 35
17.07.2018 00:00:00 19,6 16,4 11 6 31 17 W 1019,6 50
16.07.2018 23:00:00 20,2 16,4 13 7 26 14 W 1019,4 35
16.07.2018 22:00:00 21,3 16,7 15 8 35 19 W 1018,3 45
16.07.2018 21:00:00 23,0 16,8 21 11 35 19 W 1017,2 50
16.07.2018 20:00:00 24,6 17,8 18 10 35 19 W 1016,3 50
16.07.2018 19:00:00 23,8 18,9 9 5 18 10 W 1015,9 45
16.07.2018 18:00:00 24,5 18,4 9 5 16 9 WSW 1015,8 60
16.07.2018 17:00:00 23,1 17,6 13 7 16 9 W 1016,0 60
16.07.2018 16:00:00 21,5 17,9 8 4 18 10 W 1016,2 50
16.07.2018 15:00:00 21,0 18,0 8 4 16 9 W 1015,7 35
16.07.2018 14:00:00 20,5 16,9 5 3 18 10 W 1015,8 19
16.07.2018 13:00:00 21,3 16,9 15 8 22 12 WNW 1015,8 55
16.07.2018 12:00:00 21,6 17,0 5 3 11 6 SW 1015,7 50
16.07.2018 11:00:00 19,5 16,5 5 3 13 7 W 1015,4 60
16.07.2018 10:00:00 18,7 16,8 5 3 26 14 W 1015,0 50
16.07.2018 09:00:00 17,4 16,3 5 3 16 9 SW 1014,7 45
16.07.2018 08:00:00 16,4 15,4 8 4 22 12 N 1013,9 6
16.07.2018 07:00:00 16,7 15,7 9 5 46 25 ENE 1014,9 4,4
16.07.2018 06:00:00 20,2 13,4 8 4 37 20 NNW 1013,3 60
16.07.2018 05:00:00 20,2 15,0 18 10 31 17 WNW 1013,9 60
16.07.2018 04:00:00 20,9 16,5 13 7 29 16 W 1013,9 50
16.07.2018 03:00:00 17,7 16,9 4 2 8 4 NW 1013,6 13
16.07.2018 02:00:00 18,4 17,4 0 0 5 3 N 1013,6 12
16.07.2018 01:00:00 19,3 18,1 0 0 5 3 N 1013,3 15
16.07.2018 00:00:00 20,5 18,3 2 1 8 4 WNW 1013,8 24
15.07.2018 23:00:00 21,2 18,8 0 0 5 3 N 1013,6 27
15.07.2018 22:00:00 23,3 19,5 0 0 5 3 N 1013,1 40
15.07.2018 21:00:00 28,1 20,4 0 0 5 3 N 1012,4 55
15.07.2018 20:00:00 29,7 19,4 5 3 9 5 E 1012,0 50
15.07.2018 19:00:00 29,5 19,8 4 2 8 4 NNE 1011,7 55
15.07.2018 18:00:00 28,4 17,3 2 1 8 4 SW 1012,8 60
15.07.2018 17:00:00 31,2 16,0 0 0 15 8 N 1012,5 60
15.07.2018 16:00:00 32,2 14,3 4 2 15 8 W 1012,7 40
15.07.2018 15:00:00 31,6 14,7 2 1 13 7 NNW 1013,3 40
15.07.2018 14:00:00 30,8 12,7 5 3 13 7 N 1013,9 35
15.07.2018 13:00:00 29,7 16,8 5 3 13 7 N 1014,3 45
15.07.2018 12:00:00 27,9 18,0 8 4 11 6 NE 1014,6 19
15.07.2018 11:00:00 27,4 18,1 4 2 11 6 SSW 1014,9 45
15.07.2018 10:00:00 24,8 18,3 2 1 8 4 N 1015,2 50
15.07.2018 09:00:00 20,8 16,6 2 1 8 4 NNW 1015,6 45
15.07.2018 08:00:00 17,8 16,0 5 3 9 5 E 1015,2 35
15.07.2018 07:00:00 16,2 15,4 5 3 8 4 ENE 1014,9 19
15.07.2018 06:00:00 15,9 15,1 2 1 5 3 ESE 1015,2 19
15.07.2018 05:00:00 15,6 14,8 0 0 8 4 N 1015,0 18
15.07.2018 04:00:00 15,9 14,8 0 0 4 2 N 1015,0 19
15.07.2018 03:00:00 16,7 15,4 0 0 5 3 N 1015,3 35
15.07.2018 02:00:00 17,3 15,5 4 2 5 3 E 1015,5 40
15.07.2018 01:00:00 18,1 15,9 0 0 5 3 N 1016,0 55
15.07.2018 00:00:00 18,2 15,6 4 2 5 3 ESE 1015,7 50
14.07.2018 23:00:00 19,6 15,7 2 1 4 2 E 1015,8 60
14.07.2018 22:00:00 21,6 15,9 0 0 5 3 N 1015,3 45
14.07.2018 21:00:00 26,4 17,2 2 1 8 4 WSW 1014,8 60
14.07.2018 20:00:00 29,6 14,2 4 2 13 7 N 1014,6 60
14.07.2018 19:00:00 30,4 13,7 5 3 13 7 NNW 1014,8 60
14.07.2018 18:00:00 30,6 12,9 5 3 13 7 N 1015,1 55
14.07.2018 17:00:00 30,5 13,7 8 4 15 8 WNW 1015,6 60
14.07.2018 16:00:00 30,0 16,1 4 2 21 11 SE 1015,9 60
14.07.2018 15:00:00 29,5 15,2 5 3 15 8 ENE 1016,4 60
14.07.2018 14:00:00 28,3 16,2 5 3 11 6 E 1016,8 60
14.07.2018 13:00:00 27,1 17,6 2 1 9 5 NE 1017,2 60
14.07.2018 12:00:00 24,4 17,1 4 2 8 4 NNE 1017,6 50
14.07.2018 11:00:00 21,5 16,5 2 1 5 3 NE 1017,8 55
14.07.2018 10:00:00 18,9 16,3 2 1 15 8 E 1017,9 35
14.07.2018 09:00:00 16,7 15,4 0 0 5 3 N 1017,7 26
14.07.2018 08:00:00 15,5 14,9 2 1 5 3 E 1017,7 11
14.07.2018 07:00:00 14,7 14,1 0 0 5 3 N 1018,0 13
14.07.2018 06:00:00 14,5 13,9 2 1 4 2 E 1018,2 13
14.07.2018 05:00:00 14,5 14,0 2 1 5 3 E 1017,9 12
14.07.2018 04:00:00 14,8 14,2 0 0 4 2 N 1018,0 10
14.07.2018 03:00:00 15,2 14,4 0 0 4 2 N 1018,3 15
14.07.2018 02:00:00 15,8 15,0 2 1 5 3 ESE 1018,5 15
14.07.2018 01:00:00 16,7 15,2 0 0 4 2 N 1018,6 27
14.07.2018 00:00:00 18,1 15,7 0 0 5 3 N 1018,2 19
13.07.2018 23:00:00 19,8 16,1 0 0 4 2 N 1018,3 50
13.07.2018 22:00:00 22,3 16,8 0 0 5 3 N 1017,4 3,9
13.07.2018 21:00:00 25,9 17,5 4 2 9 5 E 1016,8 60
13.07.2018 20:00:00 28,3 13,4 5 3 11 6 NW 1016,7 60
13.07.2018 19:00:00 29,6 12,5 4 2 13 7 WNW 1016,8 55
13.07.2018 18:00:00 28,9 11,9 5 3 13 7 E 1017,1 55
13.07.2018 17:00:00 28,9 11,9 5 3 18 10 SSE 1017,3 60
13.07.2018 16:00:00 28,6 13,3 5 3 16 9 W 1017,7 55
13.07.2018 15:00:00 27,5 13,4 8 4 18 10 W 1017,8 35
13.07.2018 14:00:00 27,1 15,5 5 3 16 9 W 1018,3 35
13.07.2018 13:00:00 25,2 14,6 8 4 16 9 SW 1019,0 55
13.07.2018 12:00:00 24,5 14,0 8 4 15 8 WSW 1019,0 50
13.07.2018 11:00:00 23,4 13,6 5 3 13 7 WSW 1018,4 26
13.07.2018 10:00:00 21,2 15,3 2 1 8 4 NW 1018,6 40
13.07.2018 09:00:00 18,0 14,1 2 1 5 3 ENE 1018,4 50
13.07.2018 08:00:00 14,6 13,0 0 0 5 3 N 1018,4 18
13.07.2018 07:00:00 12,6 12,3 2 1 5 3 ESE 1018,3 11
13.07.2018 06:00:00 12,3 11,8 2 1 4 2 ESE 1018,1 9
13.07.2018 05:00:00 12,8 12,3 0 0 4 2 N 1018,0 12
13.07.2018 04:00:00 13,4 12,8 0 0 4 2 N 1017,9 14
13.07.2018 03:00:00 14,0 13,2 2 1 4 2 E 1017,8 18
13.07.2018 02:00:00 14,8 13,5 2 1 4 2 E 1017,9 27
13.07.2018 01:00:00 15,6 13,6 0 0 5 3 N 1017,9 40
13.07.2018 00:00:00 16,8 14,1 0 0 5 3 N 1017,7 55
12.07.2018 23:00:00 18,3 14,2 0 0 4 2 N 1017,3 16
12.07.2018 22:00:00 20,2 14,8 2 1 5 3 ESE 1016,5 17
12.07.2018 21:00:00 26,1 13,9 2 1 11 6 WNW 1016,0 60
12.07.2018 20:00:00 27,3 11,3 9 5 15 8 WNW 1015,8 60
12.07.2018 19:00:00 27,7 11,3 8 4 15 8 W 1015,7 50
12.07.2018 18:00:00 28,3 10,9 4 2 16 9 WSW 1015,6 60
12.07.2018 17:00:00 27,7 10,8 8 4 16 9 WNW 1015,8 60
12.07.2018 16:00:00 27,0 10,2 8 4 18 10 WSW 1016,0 60
12.07.2018 15:00:00 26,8 12,8 8 4 18 10 WSW 1016,1 60
12.07.2018 14:00:00 26,0 14,8 8 4 16 9 WSW 1016,3 19
12.07.2018 13:00:00 25,0 14,5 4 2 11 6 NE 1016,4 60
12.07.2018 12:00:00 23,4 13,0 4 2 9 5 NW 1016,4 60
12.07.2018 11:00:00 22,0 12,0 2 1 8 4 E 1016,2 55
12.07.2018 10:00:00 19,9 12,6 2 1 9 5 ENE 1016,3 50
12.07.2018 09:00:00 16,8 11,7 4 2 9 5 ENE 1016,3 50
12.07.2018 08:00:00 13,9 11,2 0 0 5 3 N 1016,1 30
12.07.2018 07:00:00 10,9 10,3 2 1 4 2 E 1016,0 16
12.07.2018 06:00:00 10,9 10,3 2 1 5 3 ESE 1015,9 19
12.07.2018 05:00:00 11,5 10,7 2 1 5 3 ESE 1015,8 19
12.07.2018 04:00:00 12,0 10,6 0 0 4 2 N 1015,9 35
12.07.2018 03:00:00 13,1 11,3 0 0 4 2 N 1016,0 55
12.07.2018 02:00:00 14,5 11,6 0 0 5 3 N 1016,1 60
12.07.2018 01:00:00 15,1 12,0 2 1 5 3 SE 1016,3 60
12.07.2018 00:00:00 16,8 12,1 2 1 9 5 E 1016,2 60
11.07.2018 23:00:00 18,1 12,8 2 1 8 4 ESE 1016,2 60
11.07.2018 22:00:00 21,6 12,2 5 3 18 10 N 1015,5 60
11.07.2018 21:00:00 23,8 12,4 11 6 22 12 N 1014,9 60
11.07.2018 20:00:00 25,4 12,6 15 8 24 13 NNW 1014,9 55
11.07.2018 19:00:00 26,6 12,6 15 8 24 13 NW 1015,0 60
11.07.2018 18:00:00 26,6 10,3 9 5 24 13 NNE 1015,2 60
11.07.2018 17:00:00 26,9 10,6 9 5 22 12 N 1015,4 45
11.07.2018 16:00:00 26,7 10,8 9 5 28 15 N 1015,6 50
11.07.2018 15:00:00 26,5 9,4 9 5 24 13 NW 1016,0 50
11.07.2018 14:00:00 26,1 10,3 9 5 22 12 N 1016,1 50
11.07.2018 13:00:00 25,1 10,2 9 5 21 11 NE 1016,5 50
11.07.2018 12:00:00 24,7 10,6 9 5 21 11 N 1016,6 19
11.07.2018 11:00:00 23,7 13,3 9 5 16 9 ENE 1016,8 40
11.07.2018 10:00:00 21,6 15,2 4 2 9 5 ENE 1017,1 55
11.07.2018 09:00:00 18,9 14,8 4 2 5 3 E 1017,3 45
11.07.2018 08:00:00 15,3 13,7 0 0 4 2 N 1017,5 17
11.07.2018 07:00:00 13,0 12,7 0 0 4 2 N 1017,3 11
11.07.2018 06:00:00 12,9 12,4 2 1 4 2 ESE 1017,3 7

tt = Température de l'air
td = dewpoint
ff = Vitesse du vent
fx = gusts
dd = Direction du vent
ppp = reduced air pressure
vv = visibility

stations d'obs. à proximité